Time,TemperatureF,DewpointF,PressureIn,WindDirection,WindDirectionDegrees,WindSpeedMPH,WindSpeedGustMPH,Humidity,HourlyPrecipIn,Conditions,Clouds,dailyrainin,SoftwareType,DateUTC
2013-01-22 00:04:00,11.0,11.0,29.53,SW,225,0.0,0.0,100,0.00,,,0.00,,2013-01-22 05:04:00,
2013-01-22 00:12:00,11.0,11.0,29.53,SW,225,0.0,0.0,100,0.00,,,0.00,,2013-01-22 05:12:00,
2013-01-22 00:23:00,11.0,11.0,29.52,NNW,337,0.0,0.0,100,0.00,,,0.00,,2013-01-22 05:23:00,
2013-01-22 00:33:00,11.0,11.0,29.52,NNW,337,0.0,0.0,100,0.00,,,0.00,,2013-01-22 05:33:00,
2013-01-22 00:43:00,12.0,12.0,29.52,NNW,337,0.0,0.0,100,0.00,,,0.00,,2013-01-22 05:43:00,
2013-01-22 00:53:00,12.0,12.0,29.52,NW,315,0.0,0.0,100,0.00,,,0.00,,2013-01-22 05:53:00,
2013-01-22 01:02:00,12.0,12.0,29.52,NW,315,0.0,0.0,100,0.00,,,0.00,,2013-01-22 06:02:00,
2013-01-22 01:12:00,12.0,12.0,29.52,NW,315,0.0,0.0,100,0.00,,,0.00,,2013-01-22 06:12:00,
2013-01-22 01:22:00,13.0,13.0,29.52,NW,315,0.0,0.0,100,0.00,,,0.00,,2013-01-22 06:22:00,
2013-01-22 01:33:00,13.0,13.0,29.52,NW,315,0.0,0.0,100,0.00,,,0.00,,2013-01-22 06:33:00,
2013-01-22 01:43:00,13.0,13.0,29.52,NW,315,0.0,0.0,100,0.00,,,0.00,,2013-01-22 06:43:00,
2013-01-22 01:53:00,13.0,13.0,29.51,NW,315,0.0,0.0,100,0.00,,,0.00,,2013-01-22 06:53:00,
2013-01-22 02:02:00,13.0,13.0,29.51,NW,315,0.0,0.0,100,0.00,,,0.00,,2013-01-22 07:02:00,
2013-01-22 02:12:00,13.0,13.0,29.51,NW,315,0.0,0.0,100,0.00,,,0.00,,2013-01-22 07:12:00,
2013-01-22 02:22:00,12.0,12.0,29.51,NW,315,0.0,0.0,100,0.00,,,0.00,,2013-01-22 07:22:00,
2013-01-22 02:33:00,13.0,13.0,29.51,NW,315,0.0,0.0,100,0.00,,,0.00,,2013-01-22 07:33:00,
2013-01-22 02:43:00,13.0,13.0,29.51,NW,315,0.0,0.0,100,0.00,,,0.00,,2013-01-22 07:43:00,
2013-01-22 02:53:00,13.0,13.0,29.51,NW,315,0.0,0.0,100,0.00,,,0.00,,2013-01-22 07:53:00,
2013-01-22 03:02:00,13.0,13.0,29.51,NW,315,0.0,0.0,100,0.00,,,0.00,,2013-01-22 08:02:00,
2013-01-22 03:12:00,13.0,13.0,29.51,NW,315,0.0,0.0,100,0.00,,,0.00,,2013-01-22 08:12:00,
2013-01-22 03:22:00,13.0,13.0,29.52,West,270,0.0,0.0,100,0.00,,,0.00,,2013-01-22 08:22:00,
2013-01-22 03:32:00,13.0,13.0,29.52,West,270,0.0,0.0,100,0.00,,,0.00,,2013-01-22 08:32:00,
2013-01-22 03:43:00,13.0,13.0,29.52,West,270,0.0,0.0,100,0.00,,,0.00,,2013-01-22 08:43:00,
2013-01-22 03:53:00,13.0,13.0,29.51,West,270,0.0,0.0,100,0.00,,,0.00,,2013-01-22 08:53:00,
2013-01-22 04:02:00,12.0,12.0,29.51,West,270,0.0,0.0,100,0.00,,,0.00,,2013-01-22 09:02:00,
2013-01-22 04:12:00,12.0,12.0,29.51,West,270,0.0,0.0,100,0.00,,,0.00,,2013-01-22 09:12:00,
2013-01-22 04:22:00,11.0,11.0,29.50,West,270,0.0,0.0,100,0.00,,,0.00,,2013-01-22 09:22:00,
2013-01-22 04:32:00,11.0,11.0,29.50,West,270,0.0,0.0,100,0.00,,,0.00,,2013-01-22 09:32:00,
2013-01-22 04:43:00,11.0,11.0,29.50,West,270,0.0,0.0,100,0.00,,,0.00,,2013-01-22 09:43:00,
2013-01-22 04:53:00,11.0,11.0,29.51,West,270,0.0,0.0,100,0.00,,,0.00,,2013-01-22 09:53:00,
2013-01-22 05:03:00,11.0,11.0,29.51,West,270,0.0,0.0,100,0.00,,,0.00,,2013-01-22 10:03:00,
2013-01-22 05:12:00,11.0,11.0,29.51,West,270,0.0,0.0,100,0.00,,,0.00,,2013-01-22 10:12:00,
2013-01-22 05:22:00,11.0,11.0,29.51,West,270,0.0,0.0,100,0.00,,,0.00,,2013-01-22 10:22:00,
2013-01-22 05:32:00,11.0,11.0,29.51,West,270,0.0,0.0,100,0.00,,,0.00,,2013-01-22 10:32:00,
2013-01-22 05:42:00,11.0,11.0,29.51,West,270,0.0,0.0,100,0.00,,,0.00,,2013-01-22 10:42:00,
2013-01-22 05:53:00,11.0,11.0,29.52,West,270,0.0,0.0,100,0.00,,,0.00,,2013-01-22 10:53:00,
2013-01-22 06:02:00,11.0,11.0,29.53,West,270,0.0,0.0,100,0.00,,,0.00,,2013-01-22 11:02:00,
2013-01-22 06:12:00,11.0,11.0,29.53,West,270,0.0,0.0,100,0.00,,,0.00,,2013-01-22 11:12:00,
2013-01-22 06:23:00,11.0,11.0,29.53,WSW,247,0.0,0.0,100,0.00,,,0.00,,2013-01-22 11:23:00,
2013-01-22 06:33:00,11.0,11.0,29.54,NW,315,0.0,0.0,100,0.00,,,0.00,,2013-01-22 11:33:00,
2013-01-22 06:43:00,11.0,11.0,29.54,NW,315,0.0,0.0,100,0.00,,,0.00,,2013-01-22 11:43:00,
2013-01-22 06:53:00,11.0,11.0,29.54,WNW,292,0.0,0.0,100,0.00,,,0.00,,2013-01-22 11:53:00,
2013-01-22 07:04:00,11.0,11.0,29.54,WNW,292,0.0,0.0,100,0.00,,,0.00,,2013-01-22 12:04:00,
2013-01-22 07:13:00,11.0,11.0,29.54,WNW,292,0.0,0.0,100,0.00,,,0.00,,2013-01-22 12:13:00,
2013-01-22 07:23:00,10.0,10.0,29.54,WNW,292,0.0,0.0,100,0.00,,,0.00,,2013-01-22 12:23:00,
2013-01-22 07:33:00,10.0,10.0,29.54,WNW,292,0.0,0.0,100,0.00,,,0.00,,2013-01-22 12:33:00,
2013-01-22 07:43:00,10.0,10.0,29.54,West,270,0.0,0.0,100,0.00,,,0.00,,2013-01-22 12:43:00,
2013-01-22 07:53:00,10.0,10.0,29.56,West,270,0.0,0.0,100,0.00,,,0.00,,2013-01-22 12:53:00,
2013-01-22 08:04:00,10.0,10.0,29.57,WNW,292,0.0,0.0,100,0.00,,,0.00,,2013-01-22 13:04:00,
2013-01-22 08:14:00,10.0,10.0,29.57,WNW,292,0.0,0.0,100,0.00,,,0.00,,2013-01-22 13:14:00,
2013-01-22 08:23:00,10.0,10.0,29.57,WNW,292,0.0,0.0,100,0.00,,,0.00,,2013-01-22 13:23:00,
2013-01-22 08:33:00,10.0,10.0,29.58,West,270,0.0,0.0,100,0.00,,,0.00,,2013-01-22 13:33:00,
2013-01-22 08:43:00,10.0,10.0,29.58,West,270,0.0,0.0,100,0.00,,,0.00,,2013-01-22 13:43:00,
2013-01-22 08:54:00,10.0,10.0,29.59,WNW,292,1.0,3.0,100,0.00,,,0.00,,2013-01-22 13:54:00,
2013-01-22 09:03:00,11.0,11.0,29.59,SW,225,0.0,0.0,100,0.00,,,0.00,,2013-01-22 14:03:00,
2013-01-22 09:13:00,11.0,11.0,29.59,SW,225,0.0,0.0,100,0.00,,,0.00,,2013-01-22 14:13:00,
2013-01-22 09:23:00,15.0,15.0,29.63,West,270,0.0,0.0,99,0.00,,,0.00,,2013-01-22 14:23:00,
2013-01-22 09:34:00,14.0,13.0,29.63,SW,225,1.0,3.0,94,0.00,,,0.00,,2013-01-22 14:34:00,
2013-01-22 09:44:00,14.0,13.0,29.63,SW,225,1.0,3.0,94,0.00,,,0.00,,2013-01-22 14:44:00,
2013-01-22 09:54:00,16.0,12.0,29.65,NW,315,2.0,4.0,84,0.00,,,0.00,,2013-01-22 14:54:00,
2013-01-22 10:04:00,16.0,13.0,29.65,South,180,0.0,0.0,89,0.00,,,0.00,,2013-01-22 15:04:00,
2013-01-22 10:13:00,16.0,13.0,29.65,South,180,0.0,0.0,89,0.00,,,0.00,,2013-01-22 15:13:00,
2013-01-22 10:24:00,17.0,11.0,29.66,WSW,247,1.0,4.0,78,0.00,,,0.00,,2013-01-22 15:24:00,
2013-01-22 10:34:00,17.0,11.0,29.66,West,270,0.0,2.0,78,0.00,,,0.00,,2013-01-22 15:34:00,
2013-01-22 10:43:00,17.0,11.0,29.66,West,270,0.0,2.0,78,0.00,,,0.00,,2013-01-22 15:43:00,
2013-01-22 10:54:00,15.0,8.0,29.65,WNW,292,2.0,5.0,73,0.00,,,0.00,,2013-01-22 15:54:00,
2013-01-22 11:04:00,14.0,8.0,29.64,NNW,337,1.0,3.0,76,0.00,,,0.00,,2013-01-22 16:04:00,
2013-01-22 11:13:00,14.0,8.0,29.64,NNW,337,1.0,3.0,76,0.00,,,0.00,,2013-01-22 16:13:00,
2013-01-22 11:24:00,16.0,8.0,29.64,West,270,1.0,6.0,69,0.00,,,0.00,,2013-01-22 16:24:00,
2013-01-22 11:33:00,17.0,6.0,29.65,NNE,22,3.0,6.0,62,0.00,,,0.00,,2013-01-22 16:33:00,
2013-01-22 11:43:00,17.0,6.0,29.65,NNE,22,3.0,6.0,62,0.00,,,0.00,,2013-01-22 16:43:00,
2013-01-22 11:54:00,16.0,5.0,29.64,West,270,5.0,11.0,62,0.00,,,0.00,,2013-01-22 16:54:00,
2013-01-22 12:04:00,17.0,6.0,29.64,NW,315,4.0,6.0,61,0.00,,,0.00,,2013-01-22 17:04:00,
2013-01-22 12:13:00,17.0,6.0,29.64,NW,315,4.0,6.0,61,0.00,,,0.00,,2013-01-22 17:13:00,
2013-01-22 12:23:00,16.0,5.0,29.63,NW,315,1.0,3.0,62,0.00,,,0.00,,2013-01-22 17:23:00,
2013-01-22 12:34:00,17.0,5.0,29.63,NNW,337,5.0,7.0,58,0.00,,,0.00,,2013-01-22 17:34:00,
2013-01-22 12:44:00,17.0,5.0,29.63,NNW,337,5.0,7.0,58,0.00,,,0.00,,2013-01-22 17:44:00,
2013-01-22 12:54:00,17.0,4.0,29.63,SSW,202,5.0,9.0,55,0.00,,,0.00,,2013-01-22 17:54:00,
2013-01-22 13:04:00,17.0,2.0,29.64,WNW,292,6.0,16.0,51,0.00,,,0.00,,2013-01-22 18:04:00,
2013-01-22 13:13:00,17.0,2.0,29.64,WNW,292,6.0,16.0,51,0.00,,,0.00,,2013-01-22 18:13:00,
2013-01-22 13:24:00,17.0,3.0,29.64,WNW,292,5.0,9.0,53,0.00,,,0.00,,2013-01-22 18:24:00,
2013-01-22 13:34:00,17.0,2.0,29.63,WNW,292,4.0,9.0,52,0.00,,,0.00,,2013-01-22 18:34:00,
2013-01-22 13:43:00,17.0,2.0,29.63,WNW,292,4.0,9.0,52,0.00,,,0.00,,2013-01-22 18:43:00,
2013-01-22 13:54:00,15.0,3.0,29.63,NNW,337,2.0,4.0,58,0.00,,,0.00,,2013-01-22 18:54:00,
2013-01-22 14:04:00,14.0,2.0,29.63,WSW,247,3.0,8.0,59,0.00,,,0.00,,2013-01-22 19:04:00,
2013-01-22 14:13:00,14.0,2.0,29.63,WSW,247,3.0,8.0,59,0.00,,,0.00,,2013-01-22 19:13:00,
2013-01-22 14:24:00,13.0,1.0,29.62,NNW,337,3.0,8.0,58,0.00,,,0.00,,2013-01-22 19:24:00,
2013-01-22 14:34:00,14.0,1.0,29.61,West,270,2.0,5.0,55,0.00,,,0.00,,2013-01-22 19:34:00,
2013-01-22 14:43:00,14.0,1.0,29.61,West,270,2.0,5.0,55,0.00,,,0.00,,2013-01-22 19:43:00,
2013-01-22 14:54:00,14.0,2.0,29.63,WNW,292,3.0,12.0,58,0.00,,,0.00,,2013-01-22 19:54:00,
2013-01-22 15:03:00,13.0,6.0,29.63,NW,315,2.0,6.0,72,0.00,,,0.00,,2013-01-22 20:03:00,
2013-01-22 15:13:00,13.0,6.0,29.63,NW,315,2.0,6.0,72,0.00,,,0.00,,2013-01-22 20:13:00,
2013-01-22 15:23:00,12.0,12.0,29.63,WNW,292,0.0,2.0,100,0.00,,,0.00,,2013-01-22 20:23:00,
2013-01-22 15:33:00,11.0,11.0,29.63,WSW,247,0.0,2.0,99,0.00,,,0.00,,2013-01-22 20:33:00,
2013-01-22 15:43:00,11.0,11.0,29.63,WSW,247,0.0,2.0,99,0.00,,,0.00,,2013-01-22 20:43:00,
2013-01-22 15:54:00,11.0,11.0,29.63,WNW,292,0.0,0.0,100,0.00,,,0.00,,2013-01-22 20:54:00,
2013-01-22 16:04:00,11.0,11.0,29.64,WNW,292,2.0,5.0,98,0.00,,,0.00,,2013-01-22 21:04:00,
2013-01-22 16:13:00,11.0,11.0,29.64,WNW,292,2.0,5.0,98,0.00,,,0.00,,2013-01-22 21:13:00,
2013-01-22 16:23:00,10.0,10.0,29.65,WNW,292,0.0,2.0,100,0.00,,,0.00,,2013-01-22 21:23:00,
2013-01-22 16:34:00,10.0,10.0,29.65,NNW,337,1.0,4.0,100,0.00,,,0.00,,2013-01-22 21:34:00,
2013-01-22 16:43:00,10.0,10.0,29.65,NNW,337,1.0,4.0,100,0.00,,,0.00,,2013-01-22 21:43:00,
2013-01-22 16:53:00,10.0,10.0,29.65,West,270,0.0,0.0,100,0.00,,,0.00,,2013-01-22 21:53:00,
2013-01-22 17:03:00,10.0,10.0,29.65,WNW,292,0.0,0.0,100,0.00,,,0.00,,2013-01-22 22:03:00,
2013-01-22 17:13:00,10.0,10.0,29.65,WNW,292,0.0,0.0,100,0.00,,,0.00,,2013-01-22 22:13:00,
2013-01-22 17:23:00,10.0,10.0,29.67,North,360,0.0,3.0,100,0.00,,,0.00,,2013-01-22 22:23:00,
2013-01-22 17:33:00,10.0,10.0,29.67,North,360,0.0,3.0,100,0.00,,,0.00,,2013-01-22 22:33:00,
2013-01-22 17:43:00,9.0,9.0,29.67,West,270,2.0,5.0,100,0.00,,,0.00,,2013-01-22 22:43:00,
2013-01-22 17:53:00,9.0,9.0,29.67,WNW,292,1.0,3.0,100,0.00,,,0.00,,2013-01-22 22:53:00,
2013-01-22 18:03:00,8.0,8.0,29.67,NNW,337,1.0,2.0,100,0.00,,,0.00,,2013-01-22 23:03:00,
2013-01-22 18:12:00,8.0,8.0,29.67,NNW,337,1.0,2.0,100,0.00,,,0.00,,2013-01-22 23:12:00,
2013-01-22 18:24:00,8.0,8.0,29.67,NW,315,1.0,3.0,100,0.00,,,0.00,,2013-01-22 23:24:00,
2013-01-22 18:33:00,7.0,7.0,29.69,WNW,292,1.0,3.0,100,0.00,,,0.00,,2013-01-22 23:33:00,
2013-01-22 18:43:00,7.0,7.0,29.69,WNW,292,1.0,3.0,100,0.00,,,0.00,,2013-01-22 23:43:00,
2013-01-22 18:53:00,6.0,6.0,29.69,WNW,292,0.0,3.0,100,0.00,,,0.00,,2013-01-22 23:53:00,
2013-01-22 19:03:00,6.0,6.0,29.69,North,360,0.0,1.0,100,0.00,,,0.00,,2013-01-23 00:03:00,
2013-01-22 19:13:00,6.0,6.0,29.69,North,360,0.0,1.0,100,0.00,,,0.00,,2013-01-23 00:13:00,
2013-01-22 19:23:00,5.0,5.0,29.69,WNW,292,0.0,0.0,100,0.00,,,0.00,,2013-01-23 00:23:00,
2013-01-22 19:33:00,5.0,5.0,29.70,NW,315,0.0,0.0,100,0.00,,,0.00,,2013-01-23 00:33:00,
2013-01-22 19:43:00,5.0,5.0,29.70,NW,315,0.0,0.0,100,0.00,,,0.00,,2013-01-23 00:43:00,
2013-01-22 19:53:00,4.0,4.0,29.69,West,270,0.0,0.0,100,0.00,,,0.00,,2013-01-23 00:53:00,
2013-01-22 20:03:00,4.0,4.0,29.69,NW,315,0.0,0.0,100,0.00,,,0.00,,2013-01-23 01:03:00,
2013-01-22 20:13:00,4.0,4.0,29.69,NW,315,0.0,0.0,100,0.00,,,0.00,,2013-01-23 01:13:00,
2013-01-22 20:23:00,3.0,3.0,29.69,WNW,292,0.0,0.0,100,0.00,,,0.00,,2013-01-23 01:23:00,
2013-01-22 20:33:00,2.0,2.0,29.69,WNW,292,0.0,0.0,100,0.00,,,0.00,,2013-01-23 01:33:00,
2013-01-22 20:43:00,2.0,2.0,29.69,WNW,292,0.0,0.0,100,0.00,,,0.00,,2013-01-23 01:43:00,
2013-01-22 20:53:00,1.0,1.0,29.67,WNW,292,0.0,0.0,100,0.00,,,0.00,,2013-01-23 01:53:00,
2013-01-22 21:03:00,1.0,1.0,29.69,West,270,0.0,0.0,100,0.00,,,0.00,,2013-01-23 02:03:00,
2013-01-22 21:13:00,1.0,1.0,29.69,West,270,0.0,0.0,100,0.00,,,0.00,,2013-01-23 02:13:00,
2013-01-22 21:23:00,2.0,2.0,29.69,WNW,292,0.0,0.0,100,0.00,,,0.00,,2013-01-23 02:23:00,
2013-01-22 21:33:00,1.0,1.0,29.69,WNW,292,0.0,0.0,100,0.00,,,0.00,,2013-01-23 02:33:00,
2013-01-22 21:43:00,1.0,1.0,29.69,WNW,292,0.0,0.0,100,0.00,,,0.00,,2013-01-23 02:43:00,
2013-01-22 21:54:00,0.0,0.0,29.69,WNW,292,0.0,0.0,100,0.00,,,0.00,,2013-01-23 02:54:00,
2013-01-22 22:03:00,0.0,0.0,29.67,WNW,292,0.0,0.0,100,0.00,,,0.00,,2013-01-23 03:03:00,
2013-01-22 22:13:00,0.0,0.0,29.67,WNW,292,0.0,0.0,100,0.00,,,0.00,,2013-01-23 03:13:00,
2013-01-22 22:23:00,1.0,1.0,29.69,West,270,0.0,0.0,100,0.00,,,0.00,,2013-01-23 03:23:00,
2013-01-22 22:33:00,1.0,1.0,29.70,West,270,0.0,0.0,100,0.00,,,0.00,,2013-01-23 03:33:00,
2013-01-22 22:43:00,1.0,1.0,29.70,West,270,0.0,0.0,100,0.00,,,0.00,,2013-01-23 03:43:00,
2013-01-22 22:53:00,0.0,0.0,29.70,West,270,0.0,0.0,100,0.00,,,0.00,,2013-01-23 03:53:00,
2013-01-22 23:03:00,0.0,0.0,29.70,West,270,0.0,0.0,100,0.00,,,0.00,,2013-01-23 04:03:00,
2013-01-22 23:13:00,0.0,0.0,29.70,West,270,0.0,0.0,100,0.00,,,0.00,,2013-01-23 04:13:00,
2013-01-22 23:23:00,-1.0,-1.0,29.70,West,270,0.0,0.0,100,0.00,,,0.00,,2013-01-23 04:23:00,
2013-01-22 23:33:00,-1.0,-1.0,29.70,West,270,0.0,0.0,100,0.00,,,0.00,,2013-01-23 04:33:00,
2013-01-22 23:43:00,-1.0,-1.0,29.70,West,270,0.0,0.0,100,0.00,,,0.00,,2013-01-23 04:43:00,
2013-01-22 23:53:00,-1.0,-1.0,29.69,West,270,0.0,0.0,100,0.00,,,0.00,,2013-01-23 04:53:00,